| time (UTC) | temp C | wind direction | speed KPH | gust KPH | rain 1hr cm | rain 24hr cm | rain mn cm | humidity % | barometer mb |
| 20260904223039 | -17 | 330 | 17.7 | 33.8 | 0.00 | 0.00 | 0.00 | 1001.5 | |
| 20260904221537 | -17 | 319 | 20.9 | 33.8 | 0.00 | 0.00 | 0.00 | 1001.4 | |
| 20260904220029 | -17 | 311 | 22.5 | 37.0 | 0.00 | 0.00 | 0.00 | 1001.0 | |
| 20260904214525 | -17 | 333 | 19.3 | 35.4 | 0.00 | 0.00 | 0.00 | 1000.7 | |
| 20260904213020 | -17 | 323 | 20.9 | 37.0 | 0.00 | 0.00 | 0.00 | 1000.5 | |
| 20260904211519 | -17 | 327 | 20.9 | 37.0 | 0.00 | 0.00 | 0.00 | 1000.4 | |
| 20260904210019 | -17 | 308 | 20.9 | 35.4 | 0.00 | 0.00 | 0.00 | 1000.1 | |
| 20260904204511 | -17 | 15 | 17.7 | 33.8 | 0.00 | 0.00 | 0.00 | 999.9 | |
| 20260904203006 | -17 | 61 | 20.9 | 35.4 | 0.00 | 0.00 | 0.00 | 1000.0 | |
| 20260904201502 | -17 | 346 | 17.7 | 30.6 | 0.00 | 0.00 | 0.00 | 999.8 | |
| 20260904200111 | -17 | 349 | 17.7 | 33.8 | 0.00 | 0.00 | 0.00 | 999.8 | |
| 20260904194553 | -17 | 329 | 14.5 | 22.5 | 0.00 | 0.00 | 0.00 | 999.5 | |
| 20260904193049 | -17 | 22 | 16.1 | 30.6 | 0.00 | 0.00 | 0.00 | 998.7 | |
| 20260904191544 | -17 | 332 | 16.1 | 24.1 | 0.00 | 0.00 | 0.00 | 998.8 | |
| 20260904190041 | -17 | 322 | 12.9 | 24.1 | 0.00 | 0.00 | 0.00 | 998.7 | |
| 20260904184538 | -17 | 319 | 12.9 | 20.9 | 0.00 | 0.00 | 0.00 | 998.4 | |
| 20260904183041 | -17 | 302 | 6.4 | 16.1 | 0.00 | 0.00 | 0.00 | 998.4 | |
| 20260904181537 | -17 | 296 | 6.4 | 14.5 | 0.00 | 0.00 | 0.00 | 998.3 | |
| 20260904180043 | -17 | 335 | 3.2 | 8.0 | 0.00 | 0.00 | 0.00 | 998.4 | |
| 20260904174536 | -17 | 246 | 1.6 | 8.0 | 0.00 | 0.00 | 0.00 | 998.2 | |
| 20260904173051 | -17 | 91 | 0.0 | 3.2 | 0.00 | 0.00 | 0.00 | 997.9 | |
| 20260904171538 | -17 | 338 | 4.8 | 11.3 | 0.00 | 0.00 | 0.00 | 997.7 | |
| 20260904170039 | -17 | 281 | 3.2 | 9.7 | 0.00 | 0.00 | 0.00 | 997.9 | |
| 20260904164530 | -17 | 260 | 1.6 | 8.0 | 0.00 | 0.00 | 0.00 | 997.9 | |
| 20260904163026 | -17 | 240 | 1.6 | 14.5 | 0.00 | 0.00 | 0.00 | 997.6 | |
| 20260904161521 | -17 | 248 | 6.4 | 14.5 | 0.00 | 0.00 | 0.00 | 997.7 | |
| 20260904160019 | -17 | 237 | 12.9 | 22.5 | 0.00 | 0.00 | 0.00 | 997.8 | |
| 20260904154513 | -17 | 165 | 14.5 | 20.9 | 0.00 | 0.00 | 0.00 | 997.5 | |
| 20260904153012 | -17 | 131 | 14.5 | 25.7 | 0.00 | 0.00 | 0.00 | 996.8 | |
| 20260904151504 | -17 | 106 | 14.5 | 33.8 | 0.00 | 0.00 | 0.00 | 996.0 | |
| 20260904150059 | -17 | 113 | 14.5 | 30.6 | 0.00 | 0.00 | 0.00 | 996.1 | |
| 20260904144555 | -17 | 117 | 9.7 | 22.5 | 0.00 | 0.00 | 0.00 | 996.2 | |
| 20260904143051 | -17 | 109 | 11.3 | 25.7 | 0.00 | 0.00 | 0.00 | 996.2 | |
| 20260904141553 | -17 | 107 | 11.3 | 19.3 | 0.00 | 0.00 | 0.00 | 996.5 | |
| 20260904140042 | -17 | 108 | 11.3 | 17.7 | 0.00 | 0.00 | 0.00 | 996.5 | |
| 20260904134559 | -17 | 98 | 11.3 | 22.5 | 0.00 | 0.00 | 0.00 | 996.3 | |
| 20260904133036 | -17 | 82 | 12.9 | 19.3 | 0.00 | 0.00 | 0.00 | 996.4 | |
| 20260904131528 | -17 | 80 | 12.9 | 20.9 | 0.00 | 0.00 | 0.00 | 996.4 | |
| 20260904130024 | -17 | 90 | 12.9 | 20.9 | 0.00 | 0.00 | 0.00 | 996.2 | |
| 20260904124520 | -17 | 71 | 12.9 | 19.3 | 0.00 | 0.00 | 0.00 | 995.8 | |
| 20260904123016 | -17 | 83 | 12.9 | 20.9 | 0.00 | 0.00 | 0.00 | 995.8 | |
| 20260904121511 | -17 | 93 | 12.9 | 20.9 | 0.00 | 0.00 | 0.00 | 995.8 | |
| 20260904120007 | -17 | 108 | 12.9 | 24.1 | 0.00 | 0.00 | 0.00 | 995.9 | |
| 20260904114503 | -17 | 70 | 16.1 | 25.7 | 0.00 | 0.00 | 0.00 | 996.0 | |
| 20260904113058 | -17 | 80 | 19.3 | 32.2 | 0.00 | 0.00 | 0.00 | 995.8 | |
| 20260904111553 | -17 | 62 | 20.9 | 30.6 | 0.00 | 0.00 | 0.00 | 996.0 | |
| 20260904110050 | -17 | 55 | 20.9 | 33.8 | 0.00 | 0.00 | 0.00 | 996.2 | |
| 20260904104546 | -17 | 82 | 24.1 | 38.6 | 0.00 | 0.00 | 0.00 | 996.0 | |
| 20260904103041 | -17 | 98 | 22.5 | 35.4 | 0.00 | 0.00 | 0.00 | 996.2 | |
| 20260904101537 | -17 | 72 | 20.9 | 38.6 | 0.00 | 0.00 | 0.00 | 996.6 | |
| 20260904100032 | -17 | 78 | 20.9 | 38.6 | 0.00 | 0.00 | 0.00 | 996.6 | |
| 20260904094542 | -17 | 89 | 27.4 | 38.6 | 0.00 | 0.00 | 0.00 | 996.7 | |
| 20260904093024 | -17 | 59 | 22.5 | 37.0 | 0.00 | 0.00 | 0.00 | 996.7 | |
| 20260904091519 | -17 | 67 | 25.7 | 37.0 | 0.00 | 0.00 | 0.00 | 996.8 | |
| 20260904090030 | -17 | 77 | 19.3 | 33.8 | 0.00 | 0.00 | 0.00 | 996.9 | |
| 20260904084512 | -17 | 97 | 22.5 | 33.8 | 0.00 | 0.00 | 0.00 | 997.1 | |
| 20260904083006 | -17 | 88 | 25.7 | 33.8 | 0.00 | 0.00 | 0.00 | 997.1 | |
| 20260904081504 | -17 | 72 | 22.5 | 35.4 | 0.00 | 0.00 | 0.00 | 997.2 | |
| 20260904080057 | -17 | 70 | 14.5 | 19.3 | 0.00 | 0.00 | 0.00 | 997.4 | |
| 20260904074554 | -17 | 73 | 14.5 | 17.7 | 0.00 | 0.00 | 0.00 | 997.7 | |
| 20260904073054 | -17 | 74 | 6.4 | 11.3 | 0.00 | 0.00 | 0.00 | 998.0 | |
| 20260904071600 | -17 | 87 | 4.8 | 9.7 | 0.00 | 0.00 | 0.00 | 998.0 | |
| 20260904070107 | -17 | 63 | 4.8 | 8.0 | 0.00 | 0.00 | 0.00 | 998.1 | |
| 20260904064537 | -17 | 63 | 3.2 | 8.0 | 0.00 | 0.00 | 0.00 | 998.0 | |
| 20260904063034 | -17 | 46 | 6.4 | 11.3 | 0.00 | 0.00 | 0.00 | 998.1 | |
| 20260904061530 | -17 | 37 | 6.4 | 11.3 | 0.00 | 0.00 | 0.00 | 998.5 | |
| 20260904060020 | -17 | 34 | 9.7 | 11.3 | 0.00 | 0.00 | 0.00 | 998.7 | |
| 20260904054518 | -17 | 59 | 3.2 | 6.4 | 0.00 | 0.00 | 0.00 | 998.7 | |
| 20260904053033 | -17 | 138 | 6.4 | 11.3 | 0.00 | 0.00 | 0.00 | 998.9 | |
| 20260904051520 | -17 | 94 | 6.4 | 11.3 | 0.00 | 0.00 | 0.00 | 998.9 | |
| 20260904050002 | -17 | 111 | 4.8 | 16.1 | 0.00 | 0.00 | 0.00 | 998.9 | |
| 20260904044558 | -17 | 17 | 0.0 | 6.4 | 0.00 | 0.00 | 0.00 | 998.6 | |
| 20260904043100 | -17 | 349 | 4.8 | 11.3 | 0.00 | 0.00 | 0.00 | 998.4 | |
| 20260904041549 | -17 | 321 | 4.8 | 11.3 | 0.00 | 0.00 | 0.00 | 998.5 | |
| 20260904040100 | -17 | 15 | 4.8 | 12.9 | 0.00 | 0.00 | 0.00 | 998.6 | |
| 20260904034540 | -17 | 19 | 6.4 | 11.3 | 0.00 | 0.00 | 0.00 | 998.6 | |
| 20260904033040 | -17 | 340 | 4.8 | 11.3 | 0.00 | 0.00 | 0.00 | 998.8 | |
| 20260904031537 | -17 | 331 | 8.0 | 14.5 | 0.00 | 0.00 | 0.00 | 998.6 | |
| 20260904030027 | -17 | 330 | 6.4 | 12.9 | 0.00 | 0.00 | 0.00 | 998.7 | |
| 20260904024523 | -17 | 338 | 6.4 | 11.3 | 0.00 | 0.00 | 0.00 | 998.5 | |
| 20260904023022 | -17 | 334 | 6.4 | 9.7 | 0.00 | 0.00 | 0.00 | 998.4 | |
| 20260904021524 | -17 | 326 | 8.0 | 12.9 | 0.00 | 0.00 | 0.00 | 998.2 | |
| 20260904020019 | -17 | 327 | 8.0 | 12.9 | 0.00 | 0.00 | 0.00 | 998.0 | |
| 20260904014517 | -17 | 315 | 4.8 | 12.9 | 0.00 | 0.00 | 0.00 | 998.1 | |
| 20260904013015 | -17 | 304 | 9.7 | 17.7 | 0.00 | 0.00 | 0.00 | 998.1 | |
| 20260904011511 | -17 | 319 | 11.3 | 29.0 | 0.00 | 0.00 | 0.00 | 998.1 | |
| 20260904010006 | -17 | 306 | 11.3 | 29.0 | 0.00 | 0.03 | 0.00 | 998.1 | |
| 20260904004501 | -17 | 309 | 12.9 | 22.5 | 0.00 | 0.03 | 0.00 | 998.0 | |
| 20260904003057 | -17 | 247 | 11.3 | 25.7 | 0.00 | 0.03 | 0.00 | 998.0 | |
| 20260904001554 | -17 | 319 | 11.3 | 25.7 | 0.00 | 0.03 | 0.00 | 997.9 | |
| 20260904000103 | -17 | 298 | 17.7 | 32.2 | 0.00 | 0.03 | 0.00 | 997.9 | |
| 20260903234545 | -17 | 290 | 14.5 | 25.7 | 0.00 | 0.05 | 0.00 | 997.7 | |
| 20260903233040 | -17 | 281 | 16.1 | 29.0 | 0.00 | 0.05 | 0.00 | 997.7 | |
| 20260903231540 | -17 | 310 | 17.7 | 35.4 | 0.00 | 0.05 | 0.00 | 997.6 | |
| 20260903230044 | -17 | 309 | 14.5 | 35.4 | 0.00 | 0.05 | 0.00 | 997.5 | |
| 20260903224533 | -17 | 261 | 19.3 | 33.8 | 0.00 | 0.05 | 0.00 | 997.3 |